Terug naar catalogus

STARLINK-1556

ActiefCommunicatieVLEO
NORAD 46033·PAYLOAD·🇺🇸 United States

Gelanceerd Aug 7, 2020 vanaf Cape Canaveral Space Force Station

Loading…

Volgende Passages (komende 24 uur)

TLE

VersSource: CelesTrak SupGP

Epoch: Sep 14, 2026, 21:57 UTC

1 46033C 20055G   26257.91506944 -.00019674  00000+0 -63257-3 0  2579
2 46033  53.1598 326.8102 0000996  85.9180 151.1203 15.31716755    11

Volg STARLINK-1556 in realtime met AllMySat

Download on the App Store